Location: 5810 Zion Rd, Cleves, OH 45002, USA
(39.1922°N, 84.7113°W)
Time: 04:19:29
(UTC-05:00)

Vanguard 3 - Pass Details

Date: 17 December 2019
Orbit: 507 x 3263 km, 33.4° (Epoch: 21 January)

Event Time Altitude Azimuth Distance (km) Brightness Sun altitude
Rises 05:24:23 0° 211° (SSW) 2,732 - -27.8°
Reaches altitude 10° 05:26:51 10° 192° (SSW) 2,005 - -27.3°
Exits shadow 05:27:31 13° 184° (S) 1,870 9.0 -27.2°
Maximum altitude 05:30:07 19° 145° (SE) 1,743 9.3 -26.7°
Drops below altitude 10° 05:34:25 10° 102° (ESE) 2,763 10.9 -25.8°
Sets 05:38:38 0° 87° (E) 4,224 12.1 -25.0°
